sat.trackr.live / text

‹ back to catalog

GEO-KOMPSAT-2B

NORAD 45246 · 2020-013B

PAYLOAD ACTIVE UNKNOWN

§ Identity

Operator
Country
SKOR
Launch date
2020-02-18
Launch site
FRGUI
Launch vehicle
Mass (kg)
RCS (m²)

Purposes: comms

External: N2YO · Heavens-Above · Gunter

§ Orbital elements

Epoch: 2026-09-20T00:25:23.446272Z

Period
1,436.10 min
Inclination
0.0404°
Eccentricity
0.0001395
Mean motion
1.00271831 rev/d
Perigee alt
35,780.7 km
Apogee alt
35,792.5 km
Semi-major
42,164.7 km
B*
0.0000e+0
RAAN
334.5806°
Arg perigee
252.4199°
Mean anomaly
266.5426°
Rev number
2,423

§ Raw data

GEO-KOMPSAT-2B1 45246U 20013B   26263.01763248 -.00000348  00000+0  00000+0 0  99912 45246   0.0404 334.5806 0001395 252.4199 266.5426  1.00271831 24235

JSON: /api/v1/satellites/45246 · /tle

For live sub-satellite position, see the globe view (requires WebGL).

§ Visibility from observer

Set your observer location to see the next 7 days of passes ≥ 10°. The values pass through the URL so the page stays shareable.

No JS? Fill the form by hand. The geolocation button needs JavaScript.